Bellingham, WA

7:43 AM PDT on August 17, 2017 (GMT -0700)
Bellingham International

Weather History for KBLI - January, 2013

Change the Weather History Date:

Friday, January 18, 2013

  Actual Average Record
Temperature  
Mean Temperature 32 °F 40 °F  
Max Temperature 39 °F 46 °F 58 °F (2005)
Min Temperature 26 °F 33 °F 4 °F (1950)
Degree Days  
Heating Degree Days 32 25  
Month to date heating degree days 473  
Cooling Degree Days 0 0  
Month to date cooling degree days 0  
Year to date cooling degree days 0  
Moisture  
Dew Point 31 °F    
Average Humidity 95    
Maximum Humidity 100    
Minimum Humidity 80    
Precipitation  
Precipitation 0.00 in 0.15 in 1.13 in (1968)
Month to date precipitation 2.78  
Year to date precipitation 2.78  
Sea Level Pressure  
Sea Level Pressure 30.32 in    
Wind  
Wind Speed 2 mph (NNE)    
Max Wind Speed 7 mph    
Max Gust Speed -    
Visibility 1 miles    
Events Fog    
T = Trace of Precipitation, MM = Missing Value Source: NWS Daily Summary

Daily Weather History Graph

Daily Weather History Graph

Search for Another Location

Airport or City:

Trip Planner

Search our weather history database for the weather conditions in past years. The results will help you decide how hot, cold, wet, or windy it might be!

Date:

Astronomy

Jan. 18, 2013 Rise Set
Actual Time 7:55 AM PST 4:46 PM PST
Civil Twilight 7:19 AM PST 5:21 PM PST
Nautical Twilight 6:40 AM PST 6:00 PM PST
Astronomical Twilight 6:03 AM PST 6:38 PM PST
Moon 10:54 AM PST (1/18) 12:22 AM PST (1/18)
Length of Visible Light 10h 02m
Length of Day
8h 51m
Waxing Crescent, 48% of the Moon is Illuminated
Jan 18
Waxing Crescent
Jan 18
First Quarter
Jan 26
Full
Feb 3
Last Quarter
Feb 9
New

Hourly Weather History & Observations

Time (PST) Temp. Windchill Dew Point Humidity Pressure Visibility Wind Dir Wind Speed Gust Speed Precip Events Conditions
12:06 AM 28.4 °F - 26.6 °F 93% 30.29 in 3.0 mi Calm Calm - N/A   Partly Cloudy
12:49 AM 28.4 °F - 24.8 °F 86% 30.29 in 3.0 mi Calm Calm - N/A   Mostly Cloudy
12:53 AM 27.0 °F - 25.0 °F 92% 30.32 in 1.0 mi Calm Calm - N/A   Unknown
12:56 AM 26.6 °F - 24.8 °F 93% 30.29 in 0.8 mi Calm Calm - N/A   Unknown
1:03 AM 28.4 °F - 26.6 °F 93% 30.29 in 0.2 mi Calm Calm - N/A   Unknown
1:53 AM 28.9 °F - 27.0 °F 92% 30.32 in 0.2 mi Calm Calm - N/A   Unknown
2:53 AM 32.0 °F - 32.0 °F 100% 30.31 in 0.2 mi Calm Calm - N/A   Unknown
3:53 AM 30.9 °F 27.5 °F 30.9 °F 100% 30.32 in 0.2 mi NNE 3.5 mph - N/A   Unknown
4:53 AM 30.9 °F - 30.9 °F 100% 30.31 in 0.2 mi Calm Calm - N/A   Unknown
5:50 AM 30.2 °F - 30.2 °F 100% 30.27 in 0.2 mi Calm Calm - N/A   Unknown
5:53 AM 30.9 °F - 30.9 °F 100% 30.30 in 0.2 mi Calm Calm - N/A   Unknown
6:01 AM 32.0 °F - 30.2 °F 93% 30.27 in 0.2 mi Calm Calm - N/A   Unknown
6:53 AM 30.9 °F 27.5 °F 30.9 °F 100% 30.30 in 0.2 mi NNE 3.5 mph - N/A Fog Light Freezing Fog
7:04 AM 30.2 °F - 30.2 °F 100% 30.28 in 0.2 mi Calm Calm - N/A Fog Light Freezing Fog
7:51 AM 30.2 °F 25.4 °F 30.2 °F 100% 30.30 in 0.2 mi North 4.6 mph - N/A Fog Light Freezing Fog
7:53 AM 30.9 °F 25.2 °F 30.0 °F 96% 30.33 in 0.2 mi North 5.8 mph - N/A Fog Light Freezing Fog
8:53 AM 30.9 °F - 30.0 °F 96% 30.34 in 0.2 mi Calm Calm - N/A Fog Light Freezing Fog
9:02 AM 32.0 °F - 30.2 °F 93% 30.30 in 0.1 mi Calm Calm - N/A Fog Fog
9:33 AM 32.0 °F - 30.2 °F 93% 30.31 in 0.1 mi Calm Calm - N/A Fog Fog
9:43 AM 32.0 °F - 32.0 °F 100% 30.31 in 0.1 mi Calm Calm - N/A Fog Fog
9:53 AM 33.1 °F - 32.0 °F 96% 30.35 in 0.2 mi Calm Calm - N/A Fog Fog
10:00 AM 33.8 °F - 32.0 °F 93% 30.31 in 0.2 mi Calm Calm - N/A Fog Fog
10:16 AM 33.8 °F 30.8 °F 32.0 °F 93% 30.31 in 0.2 mi ENE 3.5 mph - N/A Fog Fog
10:26 AM 33.8 °F - 32.0 °F 93% 30.32 in 0.2 mi Calm Calm - N/A Fog Fog
10:35 AM 33.8 °F 29.6 °F 32.0 °F 93% 30.32 in 0.2 mi ENE 4.6 mph - N/A Fog Fog
10:45 AM 33.8 °F 29.6 °F 33.8 °F 100% 30.32 in 0.2 mi NNE 4.6 mph - N/A Fog Fog
10:53 AM 34.0 °F 31.0 °F 33.1 °F 96% 30.36 in 0.2 mi NE 3.5 mph - N/A Fog Fog
11:36 AM 33.8 °F 29.6 °F 33.8 °F 100% 30.33 in 0.2 mi NE 4.6 mph - N/A Fog Fog
11:53 AM 35.1 °F - 35.1 °F 100% 30.36 in 0.2 mi Calm Calm - N/A Fog Fog
12:07 PM 35.6 °F - 35.6 °F 100% 30.32 in 1.0 mi Calm Calm - N/A   Overcast
12:24 PM 35.6 °F - 35.6 °F 100% 30.31 in 2.5 mi Calm Calm - N/A   Overcast
12:31 PM 37.4 °F 33.8 °F 35.6 °F 93% 30.31 in 3.0 mi NE 4.6 mph - N/A   Overcast
12:39 PM 37.4 °F 33.8 °F 37.4 °F 100% 30.31 in 2.5 mi NNE 4.6 mph - N/A   Overcast
12:53 PM 37.0 °F 34.5 °F 37.0 °F 100% 30.34 in 2.5 mi Variable 3.5 mph - N/A   Overcast
1:51 PM 39.2 °F 35.9 °F 37.4 °F 93% 30.31 in 2.5 mi North 4.6 mph - N/A   Overcast
1:53 PM 37.9 °F 34.4 °F 36.0 °F 93% 30.34 in 2.5 mi NNE 4.6 mph - N/A   Overcast
2:00 PM 37.4 °F 32.1 °F 35.6 °F 93% 30.31 in 4.0 mi North 6.9 mph - N/A   Overcast
2:11 PM 37.4 °F 32.1 °F 35.6 °F 93% 30.31 in 2.5 mi North 6.9 mph - N/A   Overcast
2:38 PM 37.4 °F 32.8 °F 35.6 °F 93% 30.31 in 2.5 mi NNE 5.8 mph - N/A   Overcast
2:53 PM 37.0 °F - 35.1 °F 93% 30.33 in 2.5 mi Calm Calm - N/A   Mostly Cloudy
3:41 PM 37.4 °F 34.9 °F 35.6 °F 93% 30.32 in 1.8 mi North 3.5 mph - N/A   Mostly Cloudy
3:53 PM 36.0 °F 33.3 °F 35.1 °F 97% 30.35 in 1.2 mi NNE 3.5 mph - N/A   Overcast
4:16 PM 35.6 °F 31.7 °F 33.8 °F 93% 30.32 in 0.5 mi North 4.6 mph - N/A Fog Fog
4:31 PM 33.8 °F 29.6 °F 33.8 °F 100% 30.31 in 0.2 mi North 4.6 mph - N/A Fog Fog
4:53 PM 34.0 °F 29.8 °F 33.1 °F 96% 30.35 in 0.2 mi NNE 4.6 mph - N/A Fog Fog
5:53 PM 32.0 °F 26.4 °F 32.0 °F 100% 30.35 in 0.2 mi NNE 5.8 mph - N/A Fog Fog
6:53 PM 32.0 °F 26.4 °F 32.0 °F 100% 30.35 in 0.2 mi NNE 5.8 mph - N/A Fog Fog
7:53 PM 30.9 °F 25.2 °F 30.9 °F 100% 30.36 in 0.2 mi NNE 5.8 mph - N/A Fog Light Freezing Fog
8:50 PM 30.2 °F 24.3 °F 30.2 °F 100% 30.33 in 0.2 mi North 5.8 mph - N/A Fog Light Freezing Fog
8:51 PM 30.9 °F 25.2 °F 30.0 °F 96% 30.36 in 0.2 mi NNE 5.8 mph - N/A Fog Light Freezing Fog
9:46 PM 30.2 °F 26.7 °F 30.2 °F 100% 30.34 in 0.2 mi NNE 3.5 mph - N/A Fog Light Freezing Fog
9:53 PM 30.0 °F 25.2 °F 28.0 °F 92% 30.38 in 0.2 mi NNE 4.6 mph - N/A Fog Light Freezing Fog
10:04 PM 30.2 °F 25.4 °F 28.4 °F 93% 30.34 in 0.2 mi NNE 4.6 mph - N/A Fog Light Freezing Fog
10:32 PM 30.2 °F 25.4 °F 26.6 °F 86% 30.35 in 0.2 mi NNE 4.6 mph - N/A Fog Light Freezing Fog
10:39 PM 30.2 °F 25.4 °F 24.8 °F 80% 30.35 in 0.5 mi North 4.6 mph - N/A   Haze
10:53 PM 30.9 °F 26.2 °F 26.1 °F 82% 30.39 in 0.5 mi NNE 4.6 mph - N/A   Haze
11:53 PM 30.9 °F 26.2 °F 27.0 °F 85% 30.38 in 0.5 mi NNE 4.6 mph - N/A Fog Light Freezing Fog